TimeCST,TemperatureF,Dew PointF,Humidity,Sea Level PressureIn,VisibilityMPH,Wind Direction,Wind SpeedMPH,Gust SpeedMPH,PrecipitationIn,Events,Conditions,WindDirDegrees,DateUTC
12:15 AM,53.2,41.5,65,29.96,10.0,SW,4.6,-,N/A,,Clear,220,2012-12-18 06:15:00
12:35 AM,54.0,42.6,65,29.95,10.0,Calm,Calm,-,N/A,,Clear,0,2012-12-18 06:35:00
12:55 AM,54.7,43.2,65,29.94,10.0,Calm,Calm,-,N/A,,Clear,0,2012-12-18 06:55:00
1:15 AM,52.9,43.0,69,29.94,10.0,SW,4.6,-,N/A,,Clear,230,2012-12-18 07:15:00
1:35 AM,51.6,43.5,74,29.93,10.0,SSW,3.5,-,N/A,,Clear,210,2012-12-18 07:35:00
1:55 AM,53.1,45.1,74,29.94,10.0,SW,3.5,-,N/A,,Clear,220,2012-12-18 07:55:00
2:15 AM,53.2,45.5,75,29.94,10.0,Calm,Calm,-,N/A,,Clear,0,2012-12-18 08:15:00
2:35 AM,52.9,45.5,76,29.94,10.0,SSW,3.5,-,N/A,,Clear,210,2012-12-18 08:35:00
3:15 AM,52.2,45.7,79,29.94,10.0,Calm,Calm,-,N/A,,Clear,0,2012-12-18 09:15:00
3:35 AM,50.9,45.5,82,29.93,10.0,South,3.5,-,N/A,,Clear,170,2012-12-18 09:35:00
3:55 AM,49.8,45.3,84,29.93,7.0,Calm,Calm,-,N/A,,Clear,0,2012-12-18 09:55:00
4:15 AM,48.7,44.2,84,29.93,7.0,ENE,3.5,-,N/A,,Clear,70,2012-12-18 10:15:00
4:35 AM,50.2,45.7,85,29.93,7.0,Calm,Calm,-,N/A,,Clear,0,2012-12-18 10:35:00
4:55 AM,49.8,45.1,84,29.93,10.0,East,3.5,-,N/A,,Clear,80,2012-12-18 10:55:00
5:15 AM,49.3,44.8,84,29.93,7.0,East,3.5,-,N/A,,Clear,100,2012-12-18 11:15:00
5:35 AM,49.1,45.3,87,29.92,7.0,SE,3.5,-,N/A,,Clear,130,2012-12-18 11:35:00
5:55 AM,49.5,46.8,90,29.92,10.0,SE,4.6,-,N/A,,Clear,130,2012-12-18 11:55:00
6:15 AM,52.7,50.0,91,29.91,10.0,SE,4.6,-,N/A,,Clear,140,2012-12-18 12:15:00
6:35 AM,52.0,49.5,91,29.92,10.0,SSE,4.6,-,N/A,,Clear,160,2012-12-18 12:35:00
7:15 AM,51.8,49.1,90,29.93,10.0,Calm,Calm,-,N/A,,Clear,0,2012-12-18 13:15:00
7:35 AM,50.9,48.4,91,29.94,10.0,SSE,3.5,-,N/A,,Clear,160,2012-12-18 13:35:00
7:55 AM,50.4,48.2,92,29.94,10.0,Calm,Calm,-,N/A,,Clear,0,2012-12-18 13:55:00
8:15 AM,52.0,49.5,91,29.95,10.0,Calm,Calm,-,N/A,,Clear,0,2012-12-18 14:15:00
8:35 AM,54.3,50.7,88,29.95,10.0,Calm,Calm,-,N/A,,Clear,0,2012-12-18 14:35:00
8:55 AM,57.7,52.9,84,29.95,10.0,South,5.8,-,N/A,,Clear,170,2012-12-18 14:55:00
9:15 AM,63.1,55.8,77,29.95,10.0,South,8.1,-,N/A,,Clear,170,2012-12-18 15:15:00
9:35 AM,66.4,57.0,72,29.96,10.0,South,10.4,-,N/A,,Clear,180,2012-12-18 15:35:00
9:55 AM,71.4,59.0,65,29.95,10.0,South,12.7,19.6,N/A,,Clear,180,2012-12-18 15:55:00
10:15 AM,73.8,58.8,59,29.95,10.0,South,12.7,19.6,N/A,,Clear,180,2012-12-18 16:15:00
10:35 AM,76.1,57.4,52,29.95,10.0,South,12.7,20.7,N/A,,Clear,180,2012-12-18 16:35:00
10:55 AM,77.5,55.9,47,29.95,10.0,South,13.8,-,N/A,,Clear,190,2012-12-18 16:55:00
11:15 AM,79.3,54.9,43,29.94,10.0,South,10.4,-,N/A,,Clear,190,2012-12-18 17:15:00
11:35 AM,80.8,53.6,39,29.93,10.0,South,15.0,20.7,N/A,,Clear,190,2012-12-18 17:35:00
11:55 AM,81.9,54.7,39,29.92,10.0,South,12.7,-,N/A,,Clear,190,2012-12-18 17:55:00
12:15 PM,83.3,54.9,38,29.90,10.0,South,16.1,20.7,N/A,,Clear,180,2012-12-18 18:15:00
12:35 PM,84.2,57.0,39,29.89,10.0,South,11.5,20.7,N/A,,Clear,170,2012-12-18 18:35:00
12:55 PM,85.6,57.2,38,29.87,10.0,South,15.0,21.9,N/A,,Clear,170,2012-12-18 18:55:00
1:15 PM,85.6,56.5,37,29.86,10.0,South,13.8,-,N/A,,Clear,190,2012-12-18 19:15:00
1:35 PM,86.4,56.5,36,29.85,10.0,South,12.7,24.2,N/A,,Clear,170,2012-12-18 19:35:00
1:55 PM,86.7,56.3,35,29.83,10.0,South,15.0,23.0,N/A,,Clear,180,2012-12-18 19:55:00
2:15 PM,87.3,56.8,35,29.82,10.0,SSE,18.4,21.9,N/A,,Clear,160,2012-12-18 20:15:00
2:35 PM,87.6,55.9,34,29.82,10.0,South,15.0,25.3,N/A,,Clear,170,2012-12-18 20:35:00
2:55 PM,88.5,56.1,33,29.80,10.0,South,11.5,-,N/A,,Clear,170,2012-12-18 20:55:00
3:15 PM,88.2,56.3,34,29.80,10.0,South,11.5,21.9,N/A,,Clear,170,2012-12-18 21:15:00
3:35 PM,88.7,56.1,33,29.79,7.0,SSE,12.7,18.4,N/A,,Clear,160,2012-12-18 21:35:00
3:55 PM,88.5,56.5,34,29.78,3.0,South,13.8,18.4,N/A,,Clear,180,2012-12-18 21:55:00
4:15 PM,89.6,56.7,33,29.78,10.0,South,11.5,18.4,N/A,,Clear,170,2012-12-18 22:15:00
4:35 PM,87.8,57.4,36,29.78,7.0,SSE,12.7,19.6,N/A,,Clear,150,2012-12-18 22:35:00
4:55 PM,86.9,56.7,36,29.78,10.0,SSE,12.7,20.7,N/A,,Clear,150,2012-12-18 22:55:00
5:15 PM,86.0,57.4,38,29.78,10.0,South,11.5,-,N/A,,Clear,170,2012-12-18 23:15:00
5:35 PM,84.9,57.6,39,29.78,10.0,South,11.5,-,N/A,,Clear,170,2012-12-18 23:35:00
5:55 PM,82.4,59.2,45,29.78,10.0,SSE,8.1,-,N/A,,Clear,150,2012-12-18 23:55:00
6:15 PM,82.6,62.6,51,29.78,10.0,SSE,11.5,-,N/A,,Clear,150,2012-12-19 00:15:00
6:35 PM,81.0,64.6,57,29.79,10.0,ESE,12.7,18.4,N/A,,Scattered Clouds,120,2012-12-19 00:35:00
6:55 PM,78.8,67.6,68,29.80,10.0,ESE,11.5,-,N/A,,Scattered Clouds,120,2012-12-19 00:55:00
7:15 PM,77.4,68.4,74,29.80,10.0,SE,9.2,-,N/A,,Clear,130,2012-12-19 01:15:00
7:35 PM,76.5,68.9,77,29.81,10.0,SE,9.2,16.1,N/A,,Clear,130,2012-12-19 01:35:00
7:55 PM,75.4,69.1,81,29.82,10.0,SE,11.5,-,N/A,,Clear,130,2012-12-19 01:55:00
8:15 PM,75.0,69.4,83,29.82,10.0,SE,10.4,-,N/A,,Clear,130,2012-12-19 02:15:00
8:35 PM,74.5,69.8,85,29.83,10.0,SE,10.4,-,N/A,,Scattered Clouds,130,2012-12-19 02:35:00
9:15 PM,74.3,69.6,85,29.83,10.0,SE,10.4,-,N/A,,Mostly Cloudy,140,2012-12-19 03:15:00
9:35 PM,74.3,69.6,85,29.83,10.0,SSE,9.2,-,N/A,,Mostly Cloudy,150,2012-12-19 03:35:00
10:15 PM,75.4,69.8,83,29.83,10.0,SSE,11.5,-,N/A,,Mostly Cloudy,150,2012-12-19 04:15:00
10:35 PM,75.2,69.6,83,29.83,10.0,SSE,11.5,16.1,N/A,,Mostly Cloudy,150,2012-12-19 04:35:00
10:55 PM,74.7,69.8,85,29.83,10.0,SSE,11.5,17.3,N/A,,Mostly Cloudy,150,2012-12-19 04:55:00
11:15 PM,74.8,69.8,84,29.83,10.0,SSE,11.5,-,N/A,,Mostly Cloudy,150,2012-12-19 05:15:00
11:35 PM,74.8,70.0,85,29.83,10.0,SSE,12.7,-,N/A,,Mostly Cloudy,150,2012-12-19 05:35:00